Waarnemingen

Advertentie
Mijn weer
UFS TW Ems, Duitsland (10004): temperatuur & dauwpunt: 17.07.2017 08:00:00 - 23.07.2017 08:00:00 (CEST)UFS TW Ems, Duitsland (10004): windsnelheid & windstoten: 17.07.2017 08:00:00 - 23.07.2017 08:00:00 (CEST)UFS TW Ems, Duitsland (10004): windrichting: 17.07.2017 08:00:00 - 23.07.2017 08:00:00 (CEST)UFS TW Ems, Duitsland (10004): luchtdruk: 17.07.2017 08:00:00 - 23.07.2017 08:00:00 (CEST)UFS TW Ems, Duitsland (10004): zicht: 17.07.2017 08:00:00 - 23.07.2017 08:00:00 (CEST)UFS TW Ems, Duitsland (10004): Zonneschijnduur: 17.07.2017 08:00:00 - 23.07.2017 08:00:00 (CEST)
Datum & Tijd tt [°C] td [°C] ff [km/u] ff [kn] fx [km/u] fx [kn] dd ppp [hPa] vv [km] sd [min]
23.07.2017 08:00:00 15,2 14,8 22 12 - - W 1009,0 1,7 0
23.07.2017 07:00:00 16,5 15,7 4 2 - - W 1009,0 6 0
23.07.2017 06:00:00 16,8 15,9 4 2 - - N 1009,2 9 0
23.07.2017 05:00:00 16,9 15,7 7 4 - - ZO 1009,2 9 0
23.07.2017 04:00:00 17,0 16,3 18 10 - - Z 1010,0 5 0
23.07.2017 03:00:00 17,9 17,4 29 16 - - Z 1010,4 6 0
23.07.2017 02:00:00 17,5 16,8 22 12 - - Z 1010,6 9 0
23.07.2017 01:00:00 18,4 15,8 40 21 47 25 OZO 1010,3 10 0
23.07.2017 00:00:00 18,2 17,5 29 16 - - O 1011,0 8 0
22.07.2017 23:00:00 18,0 17,4 25 14 - - ONO 1010,9 9 0
22.07.2017 22:00:00 18,0 17,5 22 12 - - NO 1011,2 7 0
22.07.2017 21:00:00 17,4 16,4 7 4 94 51 N 1012,0 9 0
22.07.2017 20:00:00 - - - - - - - - - -
22.07.2017 19:00:00 17,9 17,0 25 14 - - O 1011,3 10 6
22.07.2017 18:00:00 17,9 16,8 29 16 - - O 1011,4 10 60
22.07.2017 17:00:00 18,0 16,5 29 16 - - O 1011,7 10 60
22.07.2017 16:00:00 17,9 16,5 29 16 - - O 1012,1 10 36
22.07.2017 15:00:00 17,7 16,5 29 16 - - O 1012,3 10 12
22.07.2017 14:00:00 17,8 16,2 22 12 - - O 1012,1 10 24
22.07.2017 13:00:00 17,6 16,0 25 14 - - O 1011,9 10 0
22.07.2017 12:00:00 17,5 15,7 18 10 - - ZO 1012,1 10 0
22.07.2017 11:00:00 18,0 15,8 18 10 - - OZO 1012,2 10 0
22.07.2017 10:00:00 18,0 15,6 22 12 - - OZO 1012,0 10 0
22.07.2017 09:00:00 - - - - - - - - - -
22.07.2017 08:00:00 - - - - - - - - - -
22.07.2017 07:00:00 17,5 15,2 25 14 - - O 1011,8 10 0
22.07.2017 06:00:00 17,5 14,9 29 16 - - O 1011,8 10 0
22.07.2017 05:00:00 17,5 14,9 32 18 - - O 1012,3 10 0
22.07.2017 04:00:00 17,5 14,5 32 18 - - O 1012,7 10 0
22.07.2017 03:00:00 17,5 14,1 32 18 - - O 1013,2 10 0
22.07.2017 02:00:00 17,4 14,2 32 18 - - O 1013,1 10 0
22.07.2017 01:00:00 17,1 13,7 32 18 - - O 1013,3 10 0
22.07.2017 00:00:00 17,1 13,3 32 18 - - O 1013,5 10 0
21.07.2017 23:00:00 17,2 12,9 32 18 - - O 1013,6 10 0
21.07.2017 22:00:00 17,0 12,4 36 19 - - O 1013,5 10 12
21.07.2017 21:00:00 17,1 11,7 36 19 - - O 1013,7 10 60
21.07.2017 20:00:00 17,6 12,6 32 18 - - O 1013,6 10 -
21.07.2017 19:00:00 - - - - - - - - - -
21.07.2017 18:00:00 - - - - - - - - - -
21.07.2017 17:00:00 - - - - - - - - - -
21.07.2017 16:00:00 - - - - - - - - - -
21.07.2017 15:00:00 - - - - - - - - - -
21.07.2017 14:00:00 17,4 12,2 18 10 - - OZO 1015,1 10 60
21.07.2017 13:00:00 17,3 12,1 14 8 - - OZO 1015,1 10 60
21.07.2017 12:00:00 17,2 11,9 11 6 - - ZO 1015,1 10 60
21.07.2017 11:00:00 16,6 11,5 7 4 - - Z 1014,8 10 60
21.07.2017 10:00:00 - - - - - - - - - -
21.07.2017 09:00:00 16,5 9,7 14 8 - - WZW 1014,1 10 60
21.07.2017 08:00:00 16,1 10,8 18 10 - - WZW 1013,5 10 60
21.07.2017 07:00:00 15,8 10,7 18 10 - - WZW 1013,0 10 48
21.07.2017 06:00:00 15,8 10,5 25 14 - - W 1012,4 10 0
21.07.2017 05:00:00 15,9 10,4 29 16 - - W 1012,1 10 0
21.07.2017 04:00:00 16,0 11,5 32 18 - - WZW 1011,6 10 0
21.07.2017 03:00:00 15,9 12,7 32 18 - - WZW 1011,2 10 0
21.07.2017 02:00:00 16,2 14,0 32 18 - - W 1011,0 10 0
21.07.2017 01:00:00 16,4 13,5 36 19 54 29 W 1010,2 10 0
21.07.2017 00:00:00 16,6 14,2 47 25 58 31 WZW 1009,3 10 0
20.07.2017 23:00:00 17,3 15,9 32 18 - - ZW 1008,4 10 0
20.07.2017 22:00:00 18,6 16,9 25 14 - - ZZW 1008,1 10 6
20.07.2017 21:00:00 18,5 17,3 14 8 - - Z 1007,4 10 36
20.07.2017 20:00:00 18,4 17,7 18 10 - - ZZW 1007,1 10 48
20.07.2017 19:00:00 18,3 17,6 18 10 - - Z 1006,8 10 24
20.07.2017 18:00:00 18,1 17,4 18 10 - - Z 1007,0 10 18
20.07.2017 17:00:00 18,0 17,4 18 10 - - ZZW 1006,9 10 0
20.07.2017 16:00:00 18,3 17,9 18 10 - - Z 1006,8 3,4 0
20.07.2017 15:00:00 18,3 17,9 18 10 - - ZZO 1006,7 3,0 0
20.07.2017 14:00:00 18,2 17,7 18 10 - - ZZO 1006,6 4,8 0
20.07.2017 13:00:00 18,2 17,6 14 8 - - ZZO 1006,7 6 0
20.07.2017 12:00:00 18,1 17,5 18 10 - - ZZO 1006,7 7 6
20.07.2017 11:00:00 18,0 17,6 14 8 - - ZO 1006,8 8 0
20.07.2017 10:00:00 17,8 17,7 18 10 - - OZO 1006,8 2,8 0
20.07.2017 09:00:00 17,9 17,6 14 8 - - ZO 1006,9 1,7 0
20.07.2017 08:00:00 18,5 17,4 14 8 - - ZZW 1006,6 6 0
20.07.2017 07:00:00 19,1 17,2 11 6 - - Z 1006,4 10 0
20.07.2017 06:00:00 18,4 17,7 18 10 - - O 1006,9 3,0 0
20.07.2017 05:00:00 18,3 17,6 29 16 - - ZO 1006,8 5 0
20.07.2017 04:00:00 19,2 17,3 32 18 - - ZZO 1006,5 10 0
20.07.2017 03:00:00 18,8 17,4 29 16 - - ZZO 1006,7 10 0
20.07.2017 02:00:00 19,0 17,3 29 16 - - ZZO 1007,4 10 0
20.07.2017 01:00:00 18,6 17,2 40 21 47 25 ZO 1007,3 10 0
20.07.2017 00:00:00 19,0 17,1 43 23 54 29 ZO 1007,2 10 0
19.07.2017 23:00:00 19,5 16,7 47 25 - - OZO 1007,5 10 0
19.07.2017 22:00:00 19,7 16,4 43 23 58 31 OZO 1007,8 10 0
19.07.2017 21:00:00 19,8 16,6 43 23 58 31 O 1007,3 10 48
19.07.2017 20:00:00 19,8 16,6 47 25 - - O 1007,5 10 18
19.07.2017 19:00:00 19,4 16,4 50 27 68 37 O 1008,0 2,0 36
19.07.2017 18:00:00 18,7 16,6 50 27 61 33 O 1008,8 7 0
19.07.2017 17:00:00 18,9 16,4 47 25 - - NO 1009,8 2,6 0
19.07.2017 16:00:00 18,3 16,2 29 16 50 27 ONO 1010,5 2,4 0
19.07.2017 15:00:00 18,3 16,2 43 23 50 27 O 1009,9 10 24
19.07.2017 14:00:00 17,8 15,8 40 21 - - O 1010,8 10 48
19.07.2017 13:00:00 17,7 15,6 40 21 - - O 1011,2 10 60
19.07.2017 12:00:00 17,4 15,4 36 19 47 25 O 1012,3 10 54
19.07.2017 11:00:00 17,3 15,1 40 21 - - O 1012,4 10 6
19.07.2017 10:00:00 17,1 14,9 36 19 - - O 1013,4 10 48
19.07.2017 09:00:00 17,1 14,9 36 19 - - O 1014,0 10 36
19.07.2017 08:00:00 17,1 14,9 36 19 - - O 1014,4 10 60
19.07.2017 07:00:00 16,9 15,2 32 18 - - O 1014,9 10 60
19.07.2017 06:00:00 16,9 15,5 32 18 - - O 1015,4 10 0
19.07.2017 05:00:00 16,7 14,9 36 19 - - O 1016,0 10 0
19.07.2017 04:00:00 16,8 14,9 36 19 - - O 1016,9 10 0
19.07.2017 03:00:00 16,6 14,5 32 18 - - ONO 1017,4 10 0
19.07.2017 02:00:00 16,7 13,9 32 18 - - ONO 1017,9 10 0
19.07.2017 01:00:00 16,7 14,0 29 16 - - ONO 1018,4 10 0
19.07.2017 00:00:00 17,0 13,6 29 16 - - ONO 1018,6 10 0
18.07.2017 23:00:00 16,9 13,4 29 16 - - ONO 1019,1 10 0
18.07.2017 22:00:00 16,9 13,2 25 14 - - ONO 1019,6 10 36
18.07.2017 21:00:00 16,9 12,9 25 14 - - NO 1019,7 10 60
18.07.2017 20:00:00 16,8 13,2 22 12 - - NO 1020,0 10 60
18.07.2017 19:00:00 16,7 12,9 22 12 - - ONO 1020,0 1,2 60
18.07.2017 18:00:00 - - - - - - - - - -
18.07.2017 17:00:00 16,5 12,8 14 8 - - NO 1021,1 10 60
18.07.2017 16:00:00 16,3 12,1 14 8 - - ONO 1021,8 10 60
18.07.2017 15:00:00 - - - - - - - - - -
18.07.2017 14:00:00 16,2 11,7 7 4 - - O 1022,8 10 60
18.07.2017 13:00:00 16,3 12,4 7 4 - - O 1023,2 10 42
18.07.2017 12:00:00 16,0 12,5 11 6 - - O 1023,4 10 18
18.07.2017 11:00:00 16,2 12,4 7 4 - - O 1023,5 10 18
18.07.2017 10:00:00 16,1 12,1 11 6 - - ONO 1023,5 10 18
18.07.2017 09:00:00 16,1 12,0 7 4 - - ONO 1023,4 10 0
18.07.2017 08:00:00 15,7 11,7 4 2 - - NO 1023,2 10 0
18.07.2017 07:00:00 16,2 12,0 4 2 - - ZW 1023,2 4,8 0
18.07.2017 06:00:00 15,6 11,6 7 4 - - N 1023,0 10 0
18.07.2017 05:00:00 15,6 11,4 4 2 - - W 1022,7 9 0
18.07.2017 04:00:00 15,7 11,7 11 6 - - N 1023,0 10 0
18.07.2017 03:00:00 15,9 11,6 7 4 - - WNW 1023,3 10 0
18.07.2017 02:00:00 15,9 11,5 7 4 - - NW 1023,4 10 0
18.07.2017 01:00:00 16,2 12,1 7 4 - - WNW 1023,2 10 0
18.07.2017 00:00:00 16,1 11,8 11 6 - - W 1023,3 10 0
17.07.2017 23:00:00 16,0 11,8 11 6 - - W 1023,3 10 0
17.07.2017 22:00:00 16,1 11,8 11 6 - - W 1023,2 10 0
17.07.2017 21:00:00 16,0 11,4 18 10 - - WNW 1023,0 10 0
17.07.2017 20:00:00 16,3 10,8 22 12 - - WNW 1022,8 10 42
17.07.2017 19:00:00 16,1 11,4 22 12 - - W 1022,7 10 48
17.07.2017 18:00:00 16,1 11,5 25 14 - - W 1022,6 10 60
17.07.2017 17:00:00 16,0 11,2 25 14 - - W 1022,8 10 54
17.07.2017 16:00:00 16,0 11,3 25 14 - - W 1022,6 10 60
17.07.2017 15:00:00 - - - - - - - - - -
17.07.2017 14:00:00 16,2 12,0 29 16 - - W 1022,5 10 60
17.07.2017 13:00:00 16,4 12,4 29 16 - - WZW 1022,4 10 60
17.07.2017 12:00:00 16,2 12,3 25 14 - - W 1022,5 10 54
17.07.2017 11:00:00 16,7 12,6 29 16 - - W 1022,1 10 60
17.07.2017 10:00:00 16,1 12,6 32 18 - - W 1022,2 10 60
17.07.2017 09:00:00 16,0 12,0 22 12 - - W 1021,9 10 60
17.07.2017 08:00:00 16,5 11,7 29 16 - - W 1021,6 10 42

tt = temperatuur
td = dauwpunt
ff = windsnelheid
fx = windstoten
dd = windrichting
ppp = luchtdruk
vv = zicht
sd = Zonneschijnduur

Weerstations in de omgeving